HB9KBJ-8 Weather Reports


Display with metric or nautical units.
time (UTC)temp
F
wind
direction
speed
MPH
gust
MPH
rain 1hr
in
rain 24hr
in
rain mn
in
humidity
%
barometer
mb
20260505201724 52 159 0.0 0.0 0.00 0.02 0.02 87 1009.8
20260505201215 53 159 0.0 0.0 0.00 0.02 0.02 87 1009.8
20260505200713 53 159 0.0 0.0 0.00 0.02 0.02 87 1009.7
20260505200224 53 159 0.0 0.0 0.00 0.02 0.02 87 1009.7
20260505195725 53 159 0.0 0.0 0.00 0.02 0.02 87 1009.6
20260505195234 53 159 0.0 0.0 0.00 0.02 0.02 87 1009.6
20260505194729 53 159 0.0 0.0 0.00 0.02 0.02 87 1009.6
20260505194224 53 159 0.0 0.0 0.00 0.02 0.02 86 1009.5
20260505193726 53 159 0.0 0.0 0.00 0.02 0.02 86 1009.5
20260505193225 54 159 0.0 0.0 0.00 0.02 0.02 86 1009.5
20260505192723 54 159 0.0 0.0 0.00 0.02 0.02 86 1009.5
20260505192224 54 161 0.0 0.0 0.00 0.02 0.02 85 1009.5
20260505191723 54 161 0.0 0.0 0.00 0.02 0.02 85 1009.3
20260505191223 55 161 0.0 0.0 0.00 0.02 0.02 85 1009.2
20260505190725 55 161 0.0 0.0 0.00 0.02 0.02 84 1009.2
20260505190221 55 161 0.0 0.0 0.00 0.02 0.02 84 1009.0
20260505185734 56 161 0.0 0.0 0.00 0.02 0.02 83 1008.9
20260505185229 56 161 0.0 0.0 0.00 0.02 0.02 83 1008.9
20260505184715 56 161 0.0 0.0 0.00 0.02 0.02 82 1008.9
20260505184233 57 161 0.0 0.0 0.00 0.02 0.02 81 1008.9
20260505183727 58 161 0.0 0.0 0.00 0.02 0.02 80 1008.9
20260505183229 58 161 0.0 0.0 0.00 0.02 0.02 79 1008.9
20260505182721 58 161 0.0 0.0 0.00 0.02 0.02 78 1008.9
20260505182225 59 161 0.0 0.0 0.00 0.02 0.02 77 1008.9
20260505181725 59 161 0.0 5.0 0.00 0.02 0.02 77 1008.9
20260505181223 59 161 3.0 5.0 0.00 0.02 0.02 77 1008.9
20260505180717 59 161 3.0 5.0 0.00 0.02 0.02 76 1009.0
20260505180227 60 161 0.0 0.0 0.00 0.02 0.02 76 1009.0
20260505175722 60 161 0.0 2.0 0.00 0.02 0.02 78 1008.9
20260505175233 59 161 1.0 6.0 0.00 0.02 0.02 78 1008.9
20260505174730 59 161 3.0 6.0 0.00 0.02 0.02 79 1008.9
20260505174224 59 155 0.0 0.0 0.00 0.02 0.02 80 1009.0
20260505173722 58 155 0.0 0.0 0.00 0.02 0.02 80 1009.0
20260505173215 58 154 0.0 0.0 0.00 0.02 0.02 80 1009.0
20260505172719 58 159 0.0 0.0 0.00 0.02 0.02 81 1009.0
20260505172216 58 146 0.0 0.0 0.00 0.02 0.02 82 1008.9
20260505171734 57 145 0.0 0.0 0.00 0.02 0.02 82 1008.8
20260505171229 57 145 0.0 0.0 0.00 0.02 0.02 82 1008.7
20260505170728 57 144 0.0 0.0 0.00 0.02 0.02 82 1008.7
20260505170229 57 144 0.0 0.0 0.00 0.02 0.02 82 1008.7
20260505165731 57 144 0.0 0.0 0.00 0.02 0.02 82 1008.8
20260505165230 57 143 0.0 0.0 0.00 0.02 0.02 82 1008.7
20260505164730 57 143 0.0 0.0 0.00 0.02 0.02 82 1008.7
20260505164229 57 143 0.0 0.0 0.00 0.02 0.02 82 1008.7
20260505163728 57 143 0.0 0.0 0.00 0.02 0.02 81 1008.8
20260505163227 57 143 0.0 0.0 0.00 0.02 0.02 81 1008.8
20260505162727 57 143 0.0 0.0 0.00 0.02 0.02 80 1008.9
20260505162213 57 142 0.0 0.0 0.00 0.02 0.02 80 1008.8
20260505161716 57 154 0.0 2.0 0.00 0.02 0.02 80 1008.9
20260505161215 57 152 1.0 2.0 0.00 0.02 0.02 80 1009.0
20260505160716 57 147 0.0 0.0 0.00 0.00 0.02 81 1008.9
20260505160229 57 155 0.0 0.0 0.00 0.00 0.02 80 1008.9
20260505153228 57 163 8.0 11.0 0.00 0.00 0.02 78 1008.9
20260505152727 57 153 6.0 11.0 0.00 0.00 0.02 78 1008.9
20260505152229 57 155 1.0 7.0 0.00 0.00 0.02 78 1008.9
20260505151722 57 152 6.0 7.0 0.00 0.00 0.02 78 1008.8
20260505151217 57 153 3.0 6.0 0.00 0.00 0.02 78 1008.8
20260505150715 57 156 0.0 1.0 0.00 0.00 0.02 78 1008.8
20260505150216 57 164 1.0 1.0 0.00 0.00 0.02 77 1008.9
20260505140219 61 148 0.0 0.0 0.00 0.00 0.02 75 1009.1
20260505130224 61 207 1.0 2.0 0.00 0.00 0.02 75 1009.3
20260505124720 60 213 0.0 0.0 0.00 0.00 0.02 78 1009.6
20260505124220 60 213 0.0 0.0 0.00 0.00 0.02 79 1009.5
20260505123720 60 213 0.0 0.0 0.00 0.00 0.02 79 1009.5
20260505123217 60 214 0.0 0.0 0.00 0.00 0.02 79 1009.5
20260505122716 60 214 0.0 0.0 0.00 0.00 0.02 81 1009.6
20260505122218 60 214 0.0 0.0 0.00 0.00 0.02 81 1009.5
20260505121722 60 214 0.0 0.0 0.00 0.00 0.02 80 1009.5
20260505121216 60 214 0.0 0.0 0.00 0.00 0.02 81 1009.6
20260505120732 60 214 0.0 0.0 0.00 0.00 0.02 82 1009.6
20260505120235 59 214 0.0 0.0 0.00 0.00 0.02 82 1009.6
20260505115726 58 214 0.0 0.0 0.00 0.00 0.02 82 1009.6
20260505115221 57 214 0.0 0.0 0.00 0.00 0.02 83 1009.6
20260505114716 57 214 0.0 0.0 0.01 0.00 0.02 84 1009.7
20260505114216 57 214 0.0 0.0 0.01 0.00 0.02 86 1009.8
20260505113715 57 214 0.0 0.0 0.01 0.00 0.02 86 1009.8
20260505113215 57 214 0.0 0.0 0.02 0.00 0.02 86 1009.8
20260505112731 56 214 0.0 0.0 0.02 0.00 0.02 86 1009.8
20260505112234 56 214 0.0 0.0 0.02 0.00 0.02 86 1009.8
20260505111716 56 214 0.0 0.0 0.02 0.00 0.02 86 1009.7
20260505111230 56 214 0.0 0.0 0.02 0.00 0.02 87 1009.8
20260505110729 56 214 0.0 0.0 0.02 0.00 0.02 87 1009.7
20260505110227 56 214 0.0 0.0 0.02 0.00 0.02 87 1009.8
20260505101728 56 214 0.0 0.0 0.00 0.00 0.01 85 1010.2
20260505101231 56 214 0.0 0.0 0.00 0.00 0.01 86 1010.1
20260505100727 56 214 0.0 0.0 0.00 0.00 0.01 85 1010.1
20260505100213 55 214 0.0 0.0 0.00 0.00 0.01 86 1010.1
20260505095714 55 214 0.0 0.0 0.00 0.00 0.01 86 1010.1
20260505095231 55 214 0.0 0.0 0.00 0.00 0.01 86 1010.1
20260505094730 55 214 0.0 0.0 0.00 0.00 0.01 86 1010.1
20260505094227 55 214 0.0 0.0 0.00 0.00 0.01 87 1010.1
20260505093723 55 214 0.0 0.0 0.00 0.00 0.01 87 1010.0
20260505093217 55 214 0.0 0.0 0.00 0.00 0.01 87 1010.0
20260505092713 55 214 0.0 0.0 0.00 0.00 0.01 87 1010.0
20260505092216 54 214 0.0 0.0 0.00 0.00 0.01 87 1010.0
20260505091715 55 214 0.0 0.0 0.00 0.00 0.01 87 1010.0
20260505091231 54 214 0.0 0.0 0.00 0.00 0.01 87 1009.9
20260505090728 54 214 0.0 0.0 0.00 0.00 0.01 88 1009.9
20260505090223 54 214 0.0 0.0 0.00 0.00 0.01 87 1009.8
20260505085718 54 214 0.0 0.0 0.00 0.00 0.01 88 1009.9
20260505085221 54 214 0.0 0.0 0.00 0.00 0.01 88 1010.0
20260505084722 54 214 0.0 0.0 0.00 0.00 0.01 88 1010.1
20260505084235 54 214 0.0 0.0 0.00 0.00 0.01 88 1010.2
20260505083730 54 214 0.0 0.0 0.00 0.00 0.01 88 1010.1
20260505083227 53 214 0.0 0.0 0.01 0.00 0.01 88 1010.2
20260505082724 53 214 0.0 0.0 0.01 0.00 0.01 88 1010.2
20260505082218 53 213 0.0 0.0 0.01 0.00 0.01 88 1010.3
20260505081718 53 214 0.0 0.0 0.01 0.00 0.01 88 1010.4
20260505081231 53 214 0.0 0.0 0.01 0.00 0.01 88 1010.3
20260505080728 53 214 0.0 0.0 0.01 0.00 0.01 88 1010.3
20260505080212 53 214 0.0 0.0 0.01 0.00 0.01 88 1010.4
20260505075732 53 214 0.0 0.0 0.01 0.00 0.01 88 1010.3
20260505075226 53 214 0.0 0.0 0.01 0.00 0.01 88 1010.4
20260505074722 52 214 0.0 0.0 0.01 0.00 0.01 88 1010.4
20260505074217 52 214 0.0 0.0 0.01 0.00 0.01 88 1010.7
20260505073717 52 214 0.0 0.0 0.01 0.00 0.01 88 1010.8
20260505073229 52 214 0.0 0.0 0.01 0.00 0.01 88 1010.8
20260505072726 52 214 0.0 0.0 0.00 0.00 0.00 88 1010.9
20260505072225 52 214 0.0 0.0 0.00 0.00 0.00 88 1010.9
20260505071728 52 214 0.0 0.0 0.00 0.00 0.00 88 1010.9
20260505071225 51 214 0.0 0.0 0.00 0.00 0.00 88 1011.0
20260505070728 51 214 0.0 0.0 0.00 0.00 0.00 88 1010.9
20260505070224 51 214 0.0 0.0 0.00 0.00 0.00 88 1011.0
20260505065735 51 214 0.0 0.0 0.00 0.00 0.00 88 1011.1
20260505065228 51 214 0.0 0.0 0.00 0.00 0.00 88 1011.1
20260505064728 51 214 0.0 0.0 0.00 0.00 0.00 88 1011.1
20260505064223 51 214 0.0 0.0 0.00 0.00 0.00 88 1011.1
20260505063716 51 214 0.0 0.0 0.00 0.00 0.00 88 1011.2
20260505063234 51 214 0.0 0.0 0.00 0.00 0.00 88 1011.2
20260505062715 51 214 0.0 0.0 0.00 0.00 0.00 88 1011.2
20260505062215 50 214 0.0 0.0 0.00 0.00 0.00 88 1011.3
20260505061720 50 214 0.0 0.0 0.00 0.00 0.00 88 1011.3
20260505061235 50 214 0.0 0.0 0.00 0.00 0.00 88 1011.4
20260505060730 50 214 0.0 0.0 0.00 0.00 0.00 88 1011.4
20260505060215 50 214 0.0 0.0 0.00 0.00 0.00 88 1011.3
20260505055733 50 214 0.0 0.0 0.00 0.00 0.00 88 1011.3
20260505055233 50 214 0.0 0.0 0.00 0.00 0.00 88 1011.4
20260505054729 50 214 0.0 0.0 0.00 0.00 0.00 88 1011.4
20260505054228 50 214 0.0 0.0 0.00 0.00 0.00 88 1011.3
20260505053722 49 214 0.0 0.0 0.00 0.00 0.00 88 1011.3
20260505053217 49 214 0.0 0.0 0.00 0.00 0.00 88 1011.2
20260505052714 49 214 0.0 0.0 0.00 0.00 0.00 88 1011.2
20260505052230 49 214 0.0 0.0 0.00 0.00 0.00 88 1011.1
20260505051728 49 214 0.0 0.0 0.00 0.00 0.00 88 1011.1
20260505051222 49 214 0.0 0.0 0.00 0.00 0.00 88 1011.0
20260505050722 49 214 0.0 0.0 0.00 0.00 0.00 88 1011.1
20260505050217 49 214 0.0 0.0 0.00 0.00 0.00 88 1011.1
20260505041726 48 214 0.0 0.0 0.00 0.00 0.00 88 1011.3
20260505041220 48 214 0.0 0.0 0.00 0.00 0.00 88 1011.3
20260505040716 48 214 0.0 0.0 0.00 0.00 0.00 88 1011.5
20260505040212 48 214 0.0 0.0 0.00 0.00 0.00 88 1011.5
20260505035728 48 214 0.0 0.0 0.00 0.00 0.00 88 1011.3
20260505035227 48 214 0.0 0.0 0.00 0.00 0.00 88 1011.3
20260505034726 48 214 0.0 0.0 0.00 0.00 0.00 88 1011.2
20260505034223 48 214 0.0 0.0 0.00 0.00 0.00 88 1011.2
20260505033723 48 214 0.0 0.0 0.00 0.00 0.00 88 1011.2
20260505033221 48 214 0.0 0.0 0.00 0.00 0.00 88 1011.2
20260505032715 48 214 0.0 0.0 0.00 0.00 0.00 88 1011.2
20260505032229 48 214 0.0 0.0 0.00 0.00 0.00 88 1011.3
20260505031724 48 214 0.0 0.0 0.00 0.00 0.00 88 1011.5
20260505031223 48 214 0.0 0.0 0.00 0.00 0.00 88 1011.5
20260505030719 48 214 0.0 0.0 0.00 0.00 0.00 88 1011.5
20260505030233 48 214 0.0 0.0 0.00 0.00 0.00 88 1011.6
20260505025727 48 214 0.0 0.0 0.00 0.00 0.00 88 1011.5
20260505025228 48 214 0.0 0.0 0.00 0.00 0.00 88 1011.5
20260505024723 48 214 0.0 0.0 0.00 0.00 0.00 88 1011.5
20260505024224 48 214 0.0 0.0 0.00 0.00 0.00 88 1011.6
20260505023723 48 214 0.0 0.0 0.00 0.00 0.00 88 1011.6
20260505023218 48 214 0.0 0.0 0.00 0.00 0.00 88 1011.7
20260505022717 48 214 0.0 0.0 0.00 0.00 0.00 88 1011.6
20260505022217 48 214 0.0 0.0 0.00 0.00 0.00 88 1011.7
20260505021715 48 214 0.0 0.0 0.00 0.00 0.00 88 1011.7
20260505021216 48 214 0.0 0.0 0.00 0.00 0.00 88 1011.9
20260505020734 48 214 0.0 0.0 0.00 0.00 0.00 88 1011.8
20260505020225 48 214 0.0 0.0 0.00 0.00 0.00 88 1011.8
20260505015717 48 214 0.0 0.0 0.00 0.00 0.00 88 1011.9
20260505015233 48 214 0.0 0.0 0.00 0.00 0.00 88 1012.0
20260505014727 48 214 0.0 0.0 0.00 0.00 0.00 88 1011.9
20260505014228 48 214 0.0 0.0 0.00 0.00 0.00 88 1011.9
20260505013722 48 214 0.0 0.0 0.00 0.00 0.00 88 1011.8
20260505013216 48 214 0.0 0.0 0.00 0.00 0.00 88 1011.9
20260505012720 48 214 0.0 0.0 0.00 0.00 0.00 88 1011.9
20260505012216 48 214 0.0 0.0 0.00 0.00 0.00 88 1011.8
20260505011715 48 214 0.0 0.0 0.00 0.00 0.00 88 1012.0
20260505011216 48 214 0.0 0.0 0.00 0.00 0.00 88 1012.1
20260505010716 48 214 0.0 0.0 0.00 0.00 0.00 88 1012.1
20260505010220 48 214 0.0 0.0 0.00 0.00 0.00 88 1012.2
20260505005719 48 214 0.0 0.0 0.00 0.00 0.00 88 1012.2
20260505005221 48 214 0.0 0.0 0.00 0.00 0.00 88 1012.3
20260505004724 48 214 0.0 0.0 0.00 0.00 0.00 88 1012.3
20260505004220 48 214 0.0 0.0 0.00 0.00 0.00 88 1012.5
20260505003719 48 214 0.0 0.0 0.00 0.00 0.00 88 1012.6
20260505003217 48 214 0.0 0.0 0.00 0.00 0.00 88 1012.7
20260505002720 48 214 0.0 0.0 0.00 0.00 0.00 88 1012.7
20260505002217 48 214 0.0 0.0 0.00 0.00 0.00 88 1012.8
20260505001716 48 214 0.0 0.0 0.00 0.00 0.00 88 1012.8
20260505001214 48 214 0.0 0.0 0.00 0.00 0.00 88 1012.9
20260505000730 48 214 0.0 0.0 0.00 0.00 0.00 88 1012.9
20260505000218 48 214 0.0 0.0 0.00 0.00 0.00 88 1012.9
20260504235717 48 214 0.0 0.0 0.00 0.00 0.00 88 1012.9
20260504235215 48 214 0.0 0.0 0.00 0.00 0.00 88 1013.0
20260504234719 48 214 0.0 0.0 0.00 0.00 0.00 88 1013.1
20260504234214 49 214 0.0 0.0 0.00 0.00 0.00 88 1013.1
20260504233731 49 214 0.0 0.0 0.00 0.00 0.00 88 1013.2
20260504233226 49 214 0.0 0.0 0.00 0.00 0.00 88 1013.2
20260504232724 49 214 0.0 0.0 0.00 0.00 0.00 88 1013.1
20260504232220 49 214 0.0 0.0 0.00 0.00 0.00 88 1013.2
20260504231723 49 214 0.0 0.0 0.00 0.00 0.00 88 1013.3
20260504231216 49 214 0.0 0.0 0.00 0.00 0.00 88 1013.5
20260504230714 49 214 0.0 0.0 0.00 0.00 0.00 88 1013.5
20260504230218 49 214 0.0 0.0 0.00 0.00 0.00 88 1013.3
20260504225719 49 214 0.0 0.0 0.00 0.00 0.00 88 1013.5
20260504225223 49 214 0.0 0.0 0.00 0.00 0.00 88 1013.5
20260504224726 49 214 0.0 0.0 0.00 0.00 0.00 88 1013.5
20260504224226 49 214 0.0 0.0 0.00 0.00 0.00 88 1013.4
20260504223724 49 214 0.0 0.0 0.00 0.00 0.00 88 1013.5
20260504223223 50 214 0.0 0.0 0.00 0.00 0.00 88 1013.5
20260504222719 50 214 0.0 0.0 0.00 0.00 0.00 88 1013.5
20260504222219 50 214 0.0 0.0 0.00 0.00 0.00 88 1013.5
20260504221732 50 214 0.0 0.0 0.00 0.00 0.00 88 1013.5
20260504221225 50 214 0.0 0.0 0.00 0.00 0.00 88 1013.6
20260504220717 50 214 0.0 0.0 0.00 0.00 0.00 88 1013.7
20260504220231 50 214 0.0 0.0 0.00 0.00 0.00 88 1013.7
20260504215726 50 214 0.0 0.0 0.00 0.00 0.03 88 1013.7
20260504215227 51 214 0.0 0.0 0.00 0.00 0.03 87 1013.7
20260504214728 51 214 0.0 0.0 0.00 0.00 0.03 87 1013.6
20260504214224 51 214 0.0 0.0 0.00 0.00 0.03 87 1013.6
20260504213723 51 214 0.0 0.0 0.00 0.00 0.03 87 1013.7
20260504213218 51 214 0.0 0.0 0.00 0.00 0.03 87 1013.8
20260504212721 52 214 0.0 0.0 0.00 0.00 0.03 87 1013.7
20260504212236 52 214 0.0 0.0 0.00 0.00 0.03 87 1013.8
20260504211734 52 214 0.0 0.0 0.00 0.00 0.03 87 1013.8
20260504211225 52 214 0.0 0.0 0.00 0.00 0.03 86 1013.9
20260504210728 53 214 0.0 0.0 0.00 0.00 0.03 87 1014.0
20260504210227 53 214 0.0 0.0 0.00 0.00 0.03 86 1014.0
20260504205729 53 214 0.0 0.0 0.00 0.00 0.03 87 1014.1
20260504205227 53 214 0.0 0.0 0.00 0.00 0.03 87 1014.2
20260504204727 53 214 0.0 0.0 0.00 0.00 0.03 87 1014.3
20260504204225 53 214 0.0 0.0 0.00 0.00 0.03 87 1014.3
20260504203725 53 214 0.0 0.0 0.00 0.00 0.03 87 1014.3
20260504203222 53 214 0.0 0.0 0.00 0.00 0.03 87 1014.2
20260504202714 53 214 0.0 0.0 0.00 0.00 0.03 87 1014.2
20260504202229 53 214 0.0 0.0 0.00 0.00 0.03 87 1014.3